PSCRJ SBCB-SBRJ

Flight info

Callsign PSCRJ
Flight time 0h 34m
Altitude 1500
Route DCT REH 2256S04220W DCT 2256S04229W DCT 2257S04237W DCT 2258S04241W DCT 2259S04300W DCT 2259S04304W DCT 2255S04304W DCT 2254S04304W DCT 2253S04305W DCT 2253S04306W DCT 2253S04307W DCT 2253S04308W DCT
Aircraft S76/L-SDFGR/S

Departure

Time 2026-05-05 18:01
Airport Cabo Frio Airport (SBCB)

Arrival

Time 2026-05-05 18:35
Airport Santos Dumont Airport (SBRJ)
Time Latitude Longitude Altitude Speed Heading
2026-05-05 17:54 -22.92794 -42.08241 17 ft 0 kts 78°
2026-05-05 17:54 -22.92794 -42.08240 17 ft 2 kts 77°
2026-05-05 17:55 -22.92770 -42.08237 17 ft 8 kts 311°
2026-05-05 17:55 -22.92757 -42.08281 17 ft 0 kts 306°
2026-05-05 17:55 -22.92756 -42.08291 17 ft 2 kts 263°
2026-05-05 17:55 -22.92767 -42.08315 17 ft 5 kts 241°
2026-05-05 17:56 -22.92784 -42.08362 17 ft 9 kts 256°
2026-05-05 17:56 -22.92798 -42.08427 17 ft 8 kts 257°
2026-05-05 17:56 -22.92808 -42.08474 17 ft 5 kts 257°
2026-05-05 17:56 -22.92817 -42.08523 17 ft 10 kts 258°
2026-05-05 17:57 -22.92838 -42.08628 17 ft 8 kts 258°
2026-05-05 17:57 -22.92831 -42.08684 17 ft 5 kts 327°
2026-05-05 17:57 -22.92796 -42.08694 17 ft 2 kts 355°
2026-05-05 17:57 -22.92779 -42.08696 17 ft 0 kts 355°
2026-05-05 17:58 -22.92759 -42.08697 17 ft 7 kts 355°
2026-05-05 17:58 -22.92714 -42.08703 17 ft 0 kts 352°
2026-05-05 17:58 -22.92706 -42.08705 17 ft 0 kts 352°
2026-05-05 17:58 -22.92685 -42.08708 17 ft 3 kts 352°
2026-05-05 17:59 -22.92669 -42.08707 17 ft 2 kts 26°
2026-05-05 17:59 -22.92658 -42.08692 17 ft 4 kts 75°
2026-05-05 17:59 -22.92657 -42.08688 17 ft 0 kts 80°
2026-05-05 18:00 -22.92656 -42.08679 17 ft 3 kts 80°
2026-05-05 18:00 -22.92655 -42.08677 36 ft 1 kts 80°
2026-05-05 18:00 -22.92630 -42.08525 119 ft 62 kts 78°
2026-05-05 18:00 -22.92496 -42.07826 444 ft 99 kts 73°
2026-05-05 18:01 -22.92337 -42.07048 873 ft 116 kts 76°
2026-05-05 18:01 -22.92178 -42.06168 1082 ft 121 kts 72°
2026-05-05 18:01 -22.91974 -42.05187 1316 ft 147 kts 82°
2026-05-05 18:01 -22.92267 -42.04145 1249 ft 148 kts 124°
2026-05-05 18:02 -22.93057 -42.03415 1224 ft 151 kts 148°
2026-05-05 18:02 -22.94051 -42.03063 1218 ft 151 kts 169°
2026-05-05 18:02 -22.95099 -42.02959 1206 ft 152 kts 178°
2026-05-05 18:02 -22.96087 -42.03272 1184 ft 148 kts 214°
2026-05-05 18:03 -22.96595 -42.04211 1207 ft 148 kts 255°
2026-05-05 18:03 -22.96712 -42.05336 1177 ft 148 kts 267°
2026-05-05 18:03 -22.96609 -42.06403 1193 ft 143 kts 280°
2026-05-05 18:03 -22.96386 -42.07441 1198 ft 143 kts 282°
2026-05-05 18:04 -22.96157 -42.08488 1199 ft 143 kts 282°
2026-05-05 18:04 -22.95921 -42.09531 1200 ft 143 kts 283°
2026-05-05 18:04 -22.95683 -42.10576 1199 ft 143 kts 283°
2026-05-05 18:04 -22.95509 -42.11630 1198 ft 142 kts 272°
2026-05-05 18:05 -22.95503 -42.12701 1199 ft 142 kts 269°
2026-05-05 18:05 -22.95498 -42.13775 1200 ft 142 kts 269°
2026-05-05 18:05 -22.95501 -42.14851 1202 ft 143 kts 268°
2026-05-05 18:05 -22.95505 -42.15927 1200 ft 143 kts 269°
2026-05-05 18:06 -22.95484 -42.17005 1194 ft 143 kts 274°
2026-05-05 18:06 -22.95372 -42.17715 1203 ft 143 kts 280°
2026-05-05 18:06 -22.95106 -42.19127 1200 ft 144 kts 280°
2026-05-05 18:06 -22.94905 -42.20183 1200 ft 143 kts 281°
2026-05-05 18:07 -22.94700 -42.21242 1201 ft 144 kts 281°
2026-05-05 18:07 -22.94496 -42.22304 1199 ft 144 kts 281°
2026-05-05 18:07 -22.94291 -42.23364 1201 ft 145 kts 281°
2026-05-05 18:07 -22.94084 -42.24432 1200 ft 145 kts 281°
2026-05-05 18:08 -22.93879 -42.25501 1200 ft 145 kts 280°
2026-05-05 18:08 -22.93724 -42.26580 1201 ft 145 kts 276°
2026-05-05 18:08 -22.93599 -42.27665 1199 ft 145 kts 276°
2026-05-05 18:08 -22.93478 -42.28744 1201 ft 145 kts 276°
2026-05-05 18:09 -22.93359 -42.29828 1199 ft 145 kts 276°
2026-05-05 18:09 -22.93248 -42.30914 1200 ft 145 kts 275°
2026-05-05 18:09 -22.93151 -42.32002 1201 ft 145 kts 273°
2026-05-05 18:09 -22.93166 -42.33091 1201 ft 145 kts 264°
2026-05-05 18:10 -22.93209 -42.34181 1199 ft 145 kts 268°
2026-05-05 18:10 -22.93208 -42.35270 1199 ft 145 kts 269°
2026-05-05 18:10 -22.93213 -42.36363 1200 ft 145 kts 269°
2026-05-05 18:10 -22.93216 -42.37454 1200 ft 145 kts 269°
2026-05-05 18:11 -22.93219 -42.38544 1200 ft 145 kts 269°
2026-05-05 18:11 -22.93221 -42.39640 1200 ft 145 kts 269°
2026-05-05 18:11 -22.93224 -42.40735 1199 ft 145 kts 269°
2026-05-05 18:11 -22.93226 -42.41825 1201 ft 145 kts 269°
2026-05-05 18:12 -22.93228 -42.42919 1199 ft 145 kts 269°
2026-05-05 18:12 -22.93231 -42.44012 1200 ft 145 kts 269°
2026-05-05 18:12 -22.93233 -42.45119 1223 ft 152 kts 269°
2026-05-05 18:12 -22.93236 -42.46247 1194 ft 147 kts 269°
2026-05-05 18:13 -22.93237 -42.47354 1198 ft 146 kts 269°
2026-05-05 18:13 -22.93239 -42.48454 1199 ft 146 kts 269°
2026-05-05 18:13 -22.93275 -42.49554 1200 ft 146 kts 265°
2026-05-05 18:13 -22.93330 -42.50650 1199 ft 146 kts 266°
2026-05-05 18:14 -22.93383 -42.51749 1200 ft 146 kts 266°
2026-05-05 18:14 -22.93438 -42.52851 1199 ft 146 kts 265°
2026-05-05 18:14 -22.93493 -42.53949 1200 ft 146 kts 266°
2026-05-05 18:14 -22.93548 -42.55046 1200 ft 146 kts 265°
2026-05-05 18:15 -22.93603 -42.56132 1199 ft 146 kts 266°
2026-05-05 18:15 -22.93658 -42.57233 1200 ft 146 kts 266°
2026-05-05 18:15 -22.93712 -42.58327 1200 ft 146 kts 266°
2026-05-05 18:15 -22.93767 -42.59430 1200 ft 146 kts 266°
2026-05-05 18:16 -22.93989 -42.60487 1186 ft 143 kts 240°
2026-05-05 18:16 -22.94621 -42.61334 1196 ft 146 kts 229°
2026-05-05 18:16 -22.95205 -42.62225 1188 ft 145 kts 240°
2026-05-05 18:16 -22.95579 -42.63239 1199 ft 146 kts 249°
2026-05-05 18:17 -22.95937 -42.64265 1199 ft 146 kts 248°
2026-05-05 18:17 -22.96313 -42.65290 1199 ft 146 kts 247°
2026-05-05 18:17 -22.96695 -42.66312 1200 ft 146 kts 247°
2026-05-05 18:17 -22.97053 -42.67340 1197 ft 146 kts 251°
2026-05-05 18:18 -22.97254 -42.68418 1197 ft 145 kts 263°
2026-05-05 18:18 -22.97302 -42.69516 1200 ft 146 kts 266°
2026-05-05 18:18 -22.97347 -42.70620 1200 ft 146 kts 266°
2026-05-05 18:18 -22.97385 -42.71720 1200 ft 146 kts 267°
2026-05-05 18:19 -22.97421 -42.72823 1201 ft 146 kts 267°
2026-05-05 18:19 -22.97441 -42.73442 1203 ft 146 kts 267°
2026-05-05 18:19 -22.97477 -42.74538 1202 ft 146 kts 267°
2026-05-05 18:19 -22.97513 -42.75641 1197 ft 147 kts 267°
2026-05-05 18:20 -22.97549 -42.76749 1197 ft 146 kts 267°
2026-05-05 18:20 -22.97585 -42.77853 1198 ft 146 kts 267°
2026-05-05 18:20 -22.97621 -42.78957 1199 ft 147 kts 267°
2026-05-05 18:20 -22.97657 -42.80057 1200 ft 146 kts 267°
2026-05-05 18:21 -22.97693 -42.81161 1200 ft 147 kts 267°
2026-05-05 18:21 -22.97728 -42.82270 1199 ft 147 kts 267°
2026-05-05 18:21 -22.97764 -42.83369 1200 ft 147 kts 267°
2026-05-05 18:21 -22.97800 -42.84478 1200 ft 147 kts 267°
2026-05-05 18:22 -22.97835 -42.85577 1200 ft 147 kts 267°
2026-05-05 18:22 -22.97871 -42.86685 1201 ft 147 kts 267°
2026-05-05 18:22 -22.97907 -42.87790 1199 ft 147 kts 267°
2026-05-05 18:22 -22.97942 -42.88892 1200 ft 147 kts 267°
2026-05-05 18:23 -22.97978 -42.89998 1200 ft 147 kts 267°
2026-05-05 18:23 -22.98013 -42.91103 1199 ft 147 kts 267°
2026-05-05 18:23 -22.98048 -42.92208 1200 ft 147 kts 267°
2026-05-05 18:23 -22.98084 -42.93313 1200 ft 147 kts 267°
2026-05-05 18:24 -22.98119 -42.94418 1199 ft 147 kts 267°
2026-05-05 18:24 -22.98154 -42.95524 1200 ft 147 kts 267°
2026-05-05 18:24 -22.98190 -42.96629 1199 ft 147 kts 267°
2026-05-05 18:24 -22.98224 -42.97728 1200 ft 147 kts 267°
2026-05-05 18:25 -22.98260 -42.98836 1201 ft 147 kts 267°
2026-05-05 18:25 -22.98271 -42.99206 1200 ft 147 kts 267°
2026-05-05 18:25 -22.98330 -43.01044 1200 ft 147 kts 267°
2026-05-05 18:25 -22.98373 -43.02155 1200 ft 147 kts 265°
2026-05-05 18:26 -22.98442 -43.03263 1198 ft 147 kts 265°
2026-05-05 18:26 -22.98511 -43.04362 1200 ft 147 kts 265°
2026-05-05 18:26 -22.98584 -43.05461 1200 ft 147 kts 264°
2026-05-05 18:26 -22.98670 -43.06573 1199 ft 147 kts 264°
2026-05-05 18:27 -22.98631 -43.07657 1175 ft 144 kts 285°
2026-05-05 18:27 -22.97994 -43.08425 1195 ft 141 kts 332°
2026-05-05 18:27 -22.97033 -43.08552 1221 ft 143 kts
2026-05-05 18:27 -22.96016 -43.08426 1209 ft 147 kts
2026-05-05 18:28 -22.93986 -43.08135 1200 ft 147 kts
2026-05-05 18:28 -22.92972 -43.07980 1200 ft 147 kts
2026-05-05 18:28 -22.91960 -43.07824 1199 ft 147 kts
2026-05-05 18:29 -22.90946 -43.07667 1200 ft 147 kts
2026-05-05 18:29 -22.89930 -43.07511 1199 ft 147 kts
2026-05-05 18:29 -22.88913 -43.07404 1200 ft 147 kts
2026-05-05 18:29 -22.87894 -43.07363 1199 ft 147 kts
2026-05-05 18:30 -22.86906 -43.07542 1184 ft 144 kts 332°
2026-05-05 18:30 -22.86309 -43.08353 1210 ft 143 kts 290°
2026-05-05 18:30 -22.86005 -43.09402 1200 ft 146 kts 286°
2026-05-05 18:30 -22.85889 -43.09819 1204 ft 146 kts 284°
2026-05-05 18:31 -22.85863 -43.10548 1213 ft 144 kts 257°
2026-05-05 18:32 -22.86195 -43.11556 1231 ft 140 kts 247°
2026-05-05 18:32 -22.86589 -43.12499 1480 ft 130 kts 240°
2026-05-05 18:32 -22.86938 -43.13239 1552 ft 94 kts 238°
2026-05-05 18:32 -22.87152 -43.13775 1490 ft 68 kts 248°
2026-05-05 18:33 -22.87351 -43.14264 1472 ft 78 kts 240°
2026-05-05 18:33 -22.87726 -43.14834 1281 ft 101 kts 228°
2026-05-05 18:33 -22.88187 -43.15397 1065 ft 102 kts 221°
2026-05-05 18:33 -22.88667 -43.15894 739 ft 88 kts 218°
2026-05-05 18:34 -22.88966 -43.16125 649 ft 67 kts 207°
2026-05-05 18:34 -22.89347 -43.16298 435 ft 64 kts 193°
2026-05-05 18:35 -22.89730 -43.16339 325 ft 54 kts 180°
2026-05-05 18:35 -22.90040 -43.16341 257 ft 35 kts 175°
2026-05-05 18:35 -22.90207 -43.16347 187 ft 18 kts 176°
2026-05-05 18:36 -22.90360 -43.16329 178 ft 26 kts 172°
2026-05-05 18:36 -22.90535 -43.16390 163 ft 26 kts 231°
2026-05-05 18:36 -22.90555 -43.16540 78 ft 15 kts 254°
2026-05-05 18:36 -22.90564 -43.16582 29 ft 3 kts 266°
2026-05-05 18:37 -22.90571 -43.16613 24 ft 4 kts 265°
2026-05-05 18:37 -22.90567 -43.16618 16 ft 1 kts 265°